Weather History for Rifle, CO

Change the Weather History Date:

Friday, April 11, 2014

  Actual Average Record
Temperature  
Mean Temperature 54 °F 47 °F  
Max Temperature 75 °F 61 °F 80 °F (1937)
Min Temperature 33 °F 32 °F 16 °F (1951)
Degree Days  
Heating Degree Days 11 18  
Month to date heating degree days 210 216  
Since 1 July heating degree days 6146 6000  
Cooling Degree Days 0 0  
Month to date cooling degree days 0 0  
Year to date cooling degree days 0 0  
Growing Degree Days 3 (Base 50)    
Moisture  
Dew Point 20 °F    
Average Humidity 38    
Maximum Humidity 69    
Minimum Humidity 7    
Precipitation  
Precipitation 0.00 in 0.04 in 0.35 in (1920)
Month to date precipitation 0.05 0.43  
Year to date precipitation 2.23 3.20  
Sea Level Pressure  
Sea Level Pressure 29.92 in    
Wind  
Wind Speed 7 mph (SSW)    
Max Wind Speed 25 mph    
Max Gust Speed 33 mph    
Visibility 10 miles    
Events      
T = Trace of Precipitation, MM = Missing Value Source: NWS Daily Summary

Daily Weather History Graph

Daily Weather History Graph

Search for Another Location

Airport:

Trip Planner

Search our weather history database for the weather conditions in past years. The results will help you decide how hot, cold, wet, or windy it might be!

Date:

Astronomy

Apr. 11, 2014 Rise Set
Actual Time 6:39 AM MDT 7:44 PM MDT
Civil Twilight 6:11 AM MDT 8:12 PM MDT
Nautical Twilight 5:39 AM MDT 8:45 PM MDT
Astronomical Twilight 5:04 AM MDT 9:19 PM MDT
Moon 4:29 PM MDT (4/11) 4:35 AM MDT (4/11)
Length of Visible Light 14h 00m
Length of Day
13h 05m
Waxing Gibbous, 87% of the Moon is Illuminated
Apr 11
Waxing Gibbous
Apr 15
Full
Apr 22
Last Quarter
Apr 29
New
May 6
First Quarter

Hourly Weather History & Observations

Time (MDT) Temp. Windchill Dew Point Humidity Pressure Visibility Wind Dir Wind Speed Gust Speed Precip Events Conditions
12:53 AM 42.1 °F 39.2 °F 24.1 °F 49% 29.98 in 10.0 mi East 4.6 mph - N/A   Clear
1:53 AM 41.0 °F - 26.1 °F 55% 29.99 in 10.0 mi Calm Calm - N/A   Clear
2:53 AM 37.0 °F 34.5 °F 24.1 °F 59% 29.99 in 10.0 mi SSE 3.5 mph - N/A   Clear
3:53 AM 35.1 °F - 24.1 °F 64% 30.01 in 10.0 mi Calm Calm - N/A   Clear
4:53 AM 34.0 °F 31.0 °F 24.1 °F 67% 30.02 in 10.0 mi SE 3.5 mph - N/A   Clear
5:53 AM 34.0 °F - 23.0 °F 64% 30.04 in 10.0 mi Calm Calm - N/A   Clear
6:53 AM 33.1 °F 30.0 °F 23.0 °F 66% 30.06 in 10.0 mi South 3.5 mph - N/A   Clear
7:53 AM 37.0 °F - 26.1 °F 65% 30.07 in 10.0 mi Calm Calm - N/A   Clear
8:53 AM 46.0 °F 43.9 °F 27.0 °F 47% 30.05 in 10.0 mi Variable 4.6 mph - N/A   Clear
9:53 AM 50.0 °F - 27.0 °F 41% 30.05 in 10.0 mi Calm Calm - N/A   Clear
10:53 AM 57.0 °F - 27.0 °F 32% 30.01 in 10.0 mi SSE 3.5 mph - N/A   Clear
11:53 AM 63.0 °F - 24.1 °F 23% 29.96 in 10.0 mi Variable 3.5 mph - N/A   Clear
12:53 PM 66.9 °F - 21.0 °F 17% 29.92 in 10.0 mi NW 6.9 mph - N/A   Clear
1:53 PM 73.0 °F - 19.9 °F 14% 29.86 in 10.0 mi West 18.4 mph 25.3 mph N/A   Clear
2:53 PM 73.0 °F - 16.0 °F 11% 29.85 in 10.0 mi West 16.1 mph 23.0 mph N/A   Clear
3:53 PM 73.9 °F - 12.9 °F 10% 29.81 in 10.0 mi West 13.8 mph 19.6 mph N/A   Clear
4:53 PM 73.9 °F - 7.0 °F 8% 29.80 in 10.0 mi West 18.4 mph 32.2 mph N/A   Clear
5:53 PM 72.0 °F - 8.1 °F 8% 29.79 in 10.0 mi WSW 16.1 mph 31.1 mph N/A   Clear
6:53 PM 70.0 °F - 8.1 °F 9% 29.80 in 10.0 mi WSW 13.8 mph - N/A   Clear
7:53 PM 66.9 °F - 8.1 °F 10% 29.79 in 10.0 mi WSW 12.7 mph - N/A   Clear
8:53 PM 60.1 °F - 14.0 °F 16% 29.79 in 10.0 mi East 5.8 mph - N/A   Clear
9:53 PM 55.9 °F - 19.0 °F 24% 29.80 in 10.0 mi East 8.1 mph - N/A   Clear
10:53 PM 50.0 °F - 19.9 °F 31% 29.79 in 10.0 mi East 5.8 mph - N/A   Clear
11:53 PM 48.9 °F - 19.9 °F 32% 29.78 in 10.0 mi Variable 3.5 mph - N/A   Clear